Details for QantasLink at YBBN




Go Back


Latest METAR
Local Time

YBBN 250430Z 13008KT 9999 FEW030 BKN220 23/13 Q1022

25/05/2018, 14:57:10

Description
Results
QantasLink Logo
Number of Pilots based at YBBN
0 Pilots Based here
Number of QantasLink Flights Departed from YBBN
1 Flights Departed
Number of QantasLink Flights Arrived at YBBN
0 Flights Arrived
Number of QantasLink Schedules Departing from YBBN
34 Schedules
Number of QantasLink Schedules Arriving at YBBN
36 Schedules
Number of QantasLink Schedules Departing from YBBN availible today
17 Schedules Today
Number of QantasLink Schedules Arriving at YBBN availible today
17 Schedules Today
Average Landing Rate at YBBN
-196 fpm
QantasLink Average Landing Rate at YBBN
0 fpm
Total Fuel Purchased at YBBN by QantasLink
4,866.59 kgs / 10,728.88 lbs

Pilots Based at YBBN


Pilot ID
Pilot Name
Pilot Rank
No. of Flights
No. of Flying Hours
There are no pilots assigned to this hub!   Will you be the first?
Content